Jaffrey, NH

12:04 PM EDT on March 24, 2017 (GMT -0400)
Jaffrey Airport-Silver Ranch

Weather History for KAFN - May, 2012

Change the Weather History Date:

Thursday, May 17, 2012

  Actual Average Record
Temperature  
Mean Temperature 55 °F -  
Max Temperature 66 °F 62 °F 82 °F (2015)
Min Temperature 45 °F 40 °F 33 °F (2003)
Degree Days  
Heating Degree Days 10    
Growing Degree Days 5 (Base 50)    
Moisture  
Dew Point 39 °F    
Average Humidity 56    
Maximum Humidity 86    
Minimum Humidity 29    
Precipitation  
Precipitation 0.00 in - - ()
Sea Level Pressure  
Sea Level Pressure 30.06 in    
Wind  
Wind Speed 5 mph (NW)    
Max Wind Speed 12 mph    
Max Gust Speed 23 mph    
Visibility 10 miles    
Events      
Averages and records for this station are not official NWS values.
T = Trace of Precipitation, MM = Missing Value Source: NWS Daily Summary

Daily Weather History Graph

Daily Weather History Graph

Search for Another Location

Airport or City:

Trip Planner

Search our weather history database for the weather conditions in past years. The results will help you decide how hot, cold, wet, or windy it might be!

Date:

Astronomy

May. 17, 2012 Rise Set
Actual Time 5:22 AM EDT 8:06 PM EDT
Civil Twilight 4:50 AM EDT 8:39 PM EDT
Nautical Twilight 4:08 AM EDT 9:20 PM EDT
Astronomical Twilight 3:21 AM EDT 10:08 PM EDT
Moon 3:23 AM EDT (5/17) 5:13 PM EDT (5/17)
Length of Visible Light 15h 49m
Length of Day
14h 43m
Waning Crescent, 10% of the Moon is Illuminated
May 17
Waning Crescent
May 20
New
May 28
First Quarter
Jun 4
Full
Jun 11
Last Quarter

Hourly Weather History & Observations

Time (EDT) Temp. Dew Point Humidity Pressure Visibility Wind Dir Wind Speed Gust Speed Precip Events Conditions
12:52 AM 64.0 °F 55.9 °F 75% 29.92 in 10.0 mi WSW 3.5 mph - N/A   Mostly Cloudy
1:52 AM 59.0 °F 53.1 °F 81% 29.93 in 10.0 mi Variable 3.5 mph - N/A   Mostly Cloudy
2:52 AM 55.9 °F 48.9 °F 77% 29.95 in 10.0 mi Variable 5.8 mph - N/A   Scattered Clouds
3:52 AM 51.1 °F 41.0 °F 68% 29.96 in 10.0 mi WNW 4.6 mph - N/A   Clear
4:52 AM 50.0 °F 39.9 °F 68% 29.97 in 10.0 mi WSW 4.6 mph - N/A   Clear
5:52 AM 50.0 °F 39.0 °F 66% 29.99 in 10.0 mi West 4.6 mph - N/A   Clear
6:52 AM 50.0 °F 39.9 °F 68% 30.00 in 10.0 mi Variable 5.8 mph - N/A   Clear
7:52 AM 53.1 °F 37.9 °F 57% 30.02 in 10.0 mi NNW 9.2 mph - N/A   Clear
8:52 AM 54.0 °F 35.1 °F 49% 30.05 in - Variable 5.8 mph 23.0 mph N/A   Clear
9:52 AM 57.0 °F 34.0 °F 42% 30.09 in 10.0 mi NW 10.4 mph 20.7 mph N/A   Clear
10:52 AM - - N/A% 30.07 in 10.0 mi NNW 9.2 mph - N/A   Clear
11:52 AM 61.0 °F 33.1 °F 35% 30.09 in 10.0 mi North - - N/A   Clear
12:52 PM 62.1 °F 33.1 °F 34% 30.10 in 10.0 mi North 8.1 mph - N/A   Clear
1:52 PM 64.0 °F 30.9 °F 29% 30.08 in 10.0 mi North 9.2 mph 17.3 mph N/A   Clear
2:52 PM 64.0 °F 30.9 °F 29% 30.09 in 10.0 mi North 11.5 mph 20.7 mph N/A   Clear
3:52 PM 64.9 °F 33.1 °F 31% 30.09 in 10.0 mi Variable 5.8 mph - N/A   Clear
4:52 PM 64.9 °F 33.1 °F 31% 30.10 in 10.0 mi Variable 4.6 mph - N/A   Clear
5:52 PM 64.9 °F 33.1 °F 31% 30.11 in 10.0 mi West 5.8 mph - N/A   Clear
6:52 PM 64.9 °F 35.1 °F 33% 30.12 in 10.0 mi Calm Calm - N/A   Clear
7:52 PM 57.9 °F 41.0 °F 53% 30.14 in 10.0 mi Calm Calm - N/A   Clear
8:52 PM 51.1 °F 43.0 °F 74% 30.17 in 10.0 mi Calm Calm - N/A   Clear
9:52 PM 48.0 °F 43.0 °F 83% 30.17 in 10.0 mi Calm Calm - N/A   Clear
10:52 PM 46.9 °F 42.1 °F 83% 30.15 in 10.0 mi South 3.5 mph - N/A   Clear
11:52 PM 45.0 °F 41.0 °F 86% 30.19 in 10.0 mi Calm Calm - N/A   Clear